Location: LDNL
(36.4545°S, 141.6685°E)
Time: 04:34:53
(UTC+10:00)

Courier 1B Rocket - Pass Details

Date: 28 May 2024
Orbit: 920 x 1201 km, 28.3° (Epoch: 14 June)

Event Time Altitude Azimuth Distance (km) Brightness Sun altitude
Exits shadow 04:09:41 33° 40° (NE) 1,869 6.6 -40.5°
Drops below altitude 10° 04:14:17 10° 65° (ENE) 3,131 8.2 -39.6°
Sets 04:17:17 0° 71° (ENE) 4,101 9.1 -39.0°
